User: anonymous   Login
Location: Unspecified
(0.0000°N, 0.0000°E)
Time: 17:18:39
(UTC+00:00)
Language:

Gonets-D1 - Orbit

View from above orbital plane
View from above orbital plane
View from above satellite
View from above satellite

Ground track
Ground track

The orbit data is extracted from the following two-line orbital elements,

1 23787U 96009A   18113.14113245  .00000001  00000-0 -51815-4 0  9992
2 23787  82.5806  45.0572 0010594 335.6835  24.3758 12.64032999 23170
Epoch (UTC): 23 April 2018 03:23:13
Eccentricity: 0.0010594
inclination: 82.5806°
perigee height: 1398 km
apogee height: 1414 km
right ascension of ascending node: 45.0572°
argument of perigee: 335.6835°
revolutions per day: 12.64032999
mean anomaly at epoch: 24.3758°
orbit number at epoch: 2317

The dashed part of the orbit path shows where the satellite is in the earth's shadow,  

DLR